FAD3060 MDSI-MDSI

Flight info

Callsign FAD3060
Flight time 0h 18m
Altitude 3000
Route VFR
Aircraft B06/L-SFG/C

Departure

Time 2026-04-18 18:31
Airport San Isidro Air Base (MDSI)

Arrival

Time 2026-04-18 18:49
Airport San Isidro Air Base (MDSI)
Time Latitude Longitude Altitude Speed Heading
2026-04-18 17:48 19.75344 -70.57567 28 ft 0 kts 248°
2026-04-18 17:59 19.75344 -70.57566 28 ft 1 kts 201°
2026-04-18 17:59 19.75346 -70.57568 28 ft 1 kts 15°
2026-04-18 17:59 19.75019 -70.58242 164 ft 115 kts 249°
2026-04-18 18:00 19.74822 -70.59134 320 ft 131 kts 275°
2026-04-18 18:00 19.73948 -70.59969 359 ft 131 kts 172°
2026-04-18 18:01 19.72200 -70.60019 903 ft 119 kts 179°
2026-04-18 18:01 19.70516 -70.60381 1346 ft 123 kts 188°
2026-04-18 18:02 19.68847 -70.60369 1988 ft 118 kts 171°
2026-04-18 18:02 19.67249 -70.60136 2725 ft 116 kts 168°
2026-04-18 18:02 19.66456 -70.59996 3021 ft 115 kts 169°
2026-04-18 18:03 19.64718 -70.59571 3114 ft 145 kts 158°
2026-04-18 18:03 19.63744 -70.59191 3077 ft 152 kts 159°
2026-04-18 18:04 19.61725 -70.58509 3057 ft 153 kts 160°
2026-04-18 18:04 19.60732 -70.58212 3048 ft 146 kts 162°
2026-04-18 18:04 19.58776 -70.57632 3054 ft 145 kts 162°
2026-04-18 18:05 19.56802 -70.57038 3053 ft 147 kts 162°
2026-04-18 18:05 19.55812 -70.56736 3047 ft 148 kts 160°
2026-04-18 18:05 19.54825 -70.56454 3047 ft 147 kts 162°
2026-04-18 18:06 19.52952 -70.55864 3410 ft 131 kts 157°
2026-04-18 18:06 19.52095 -70.55490 3505 ft 136 kts 158°
2026-04-18 18:06 19.51178 -70.55195 3532 ft 142 kts 165°
2026-04-18 18:07 19.50208 -70.54962 3533 ft 143 kts 167°
2026-04-18 18:07 19.49237 -70.54733 3519 ft 141 kts 165°
2026-04-18 18:07 19.47365 -70.54164 3490 ft 138 kts 157°
2026-04-18 18:08 19.46467 -70.53773 3458 ft 142 kts 154°
2026-04-18 18:08 19.45563 -70.53351 3430 ft 140 kts 154°
2026-04-18 18:08 19.44651 -70.52921 3425 ft 147 kts 155°
2026-04-18 18:08 19.43733 -70.52436 3417 ft 147 kts 150°
2026-04-18 18:09 19.42812 -70.51950 3415 ft 148 kts 153°
2026-04-18 18:09 19.41874 -70.51499 3410 ft 147 kts 154°
2026-04-18 18:09 19.40942 -70.51069 3414 ft 149 kts 155°
2026-04-18 18:09 19.39989 -70.50641 3410 ft 148 kts 155°
2026-04-18 18:10 19.39042 -70.50225 3413 ft 147 kts 156°
2026-04-18 18:10 19.38091 -70.49805 3414 ft 148 kts 156°
2026-04-18 18:10 19.37138 -70.49379 3414 ft 148 kts 155°
2026-04-18 18:10 19.36190 -70.48955 3412 ft 149 kts 156°
2026-04-18 18:11 19.35235 -70.48528 3414 ft 149 kts 156°
2026-04-18 18:11 19.34271 -70.48092 3413 ft 152 kts 156°
2026-04-18 18:11 19.33309 -70.47650 3411 ft 149 kts 155°
2026-04-18 18:11 19.32369 -70.47180 3413 ft 149 kts 153°
2026-04-18 18:12 19.31445 -70.46683 3413 ft 148 kts 151°
2026-04-18 18:12 19.30546 -70.46191 3409 ft 147 kts 152°
2026-04-18 18:12 19.29640 -70.45687 3411 ft 147 kts 152°
2026-04-18 18:12 19.28739 -70.45180 3409 ft 146 kts 150°
2026-04-18 18:13 19.27834 -70.44682 3414 ft 147 kts 152°
2026-04-18 18:13 19.26928 -70.44178 3415 ft 147 kts 151°
2026-04-18 18:13 19.26013 -70.43670 3414 ft 149 kts 152°
2026-04-18 18:13 19.25099 -70.43155 3417 ft 148 kts 151°
2026-04-18 18:14 19.24198 -70.42654 3413 ft 148 kts 151°
2026-04-18 18:14 19.23291 -70.42146 3412 ft 146 kts 150°
2026-04-18 18:14 19.22419 -70.41606 3416 ft 145 kts 148°
2026-04-18 18:14 19.21556 -70.41046 3419 ft 146 kts 147°
2026-04-18 18:15 19.20684 -70.40474 3417 ft 148 kts 147°
2026-04-18 18:15 19.19813 -70.39900 3424 ft 147 kts 147°
2026-04-18 18:15 19.18938 -70.39325 3420 ft 149 kts 148°
2026-04-18 18:15 19.18044 -70.38791 3419 ft 147 kts 150°
2026-04-18 18:16 19.17473 -70.38481 3422 ft 148 kts 153°
2026-04-18 18:16 19.16527 -70.38006 3420 ft 152 kts 154°
2026-04-18 18:16 19.15566 -70.37534 3417 ft 152 kts 154°
2026-04-18 18:16 19.14600 -70.37065 3422 ft 153 kts 154°
2026-04-18 18:17 19.13633 -70.36588 3421 ft 153 kts 154°
2026-04-18 18:17 19.12670 -70.36103 3421 ft 152 kts 153°
2026-04-18 18:17 19.11751 -70.35615 3424 ft 148 kts 152°
2026-04-18 18:17 19.10829 -70.35114 3415 ft 145 kts 150°
2026-04-18 18:18 19.09957 -70.34620 3416 ft 140 kts 149°
2026-04-18 18:18 19.09241 -70.33943 3417 ft 139 kts 130°
2026-04-18 18:18 19.08667 -70.33136 3418 ft 139 kts 127°
2026-04-18 18:18 19.08055 -70.32357 3418 ft 137 kts 130°
2026-04-18 18:19 19.07414 -70.31619 3415 ft 135 kts 133°
2026-04-18 18:19 19.06774 -70.30921 3419 ft 130 kts 134°
2026-04-18 18:19 19.06070 -70.30317 3429 ft 133 kts 144°
2026-04-18 18:19 19.05279 -70.29821 3411 ft 129 kts 149°
2026-04-18 18:20 19.04491 -70.29363 3418 ft 130 kts 150°
2026-04-18 18:20 19.03688 -70.28908 3417 ft 131 kts 150°
2026-04-18 18:20 19.02902 -70.28419 3415 ft 129 kts 146°
2026-04-18 18:20 19.02176 -70.27906 3439 ft 125 kts 144°
2026-04-18 18:21 19.01449 -70.27373 3432 ft 129 kts 143°
2026-04-18 18:21 19.00723 -70.26825 3425 ft 127 kts 143°
2026-04-18 18:21 19.00007 -70.26279 3423 ft 128 kts 143°
2026-04-18 18:21 18.99285 -70.25730 3421 ft 128 kts 143°
2026-04-18 18:22 18.98562 -70.25185 3420 ft 130 kts 143°
2026-04-18 18:22 18.97819 -70.24630 3424 ft 131 kts 143°
2026-04-18 18:22 18.97059 -70.24066 3417 ft 135 kts 144°
2026-04-18 18:22 18.96288 -70.23489 3418 ft 136 kts 143°
2026-04-18 18:23 18.95524 -70.22909 3419 ft 134 kts 143°
2026-04-18 18:23 18.94762 -70.22339 3415 ft 134 kts 143°
2026-04-18 18:23 18.93996 -70.21778 3417 ft 134 kts 143°
2026-04-18 18:23 18.93227 -70.21219 3414 ft 134 kts 144°
2026-04-18 18:24 18.92462 -70.20659 3417 ft 134 kts 143°
2026-04-18 18:24 18.91694 -70.20101 3420 ft 134 kts 144°
2026-04-18 18:24 18.90916 -70.19537 3413 ft 135 kts 143°
2026-04-18 18:24 18.90157 -70.18984 3417 ft 134 kts 144°
2026-04-18 18:25 18.89397 -70.18428 3413 ft 128 kts 143°
2026-04-18 18:25 18.88670 -70.17902 3421 ft 130 kts 144°
2026-04-18 18:25 18.87908 -70.17345 3414 ft 131 kts 143°
2026-04-18 18:25 18.87176 -70.16810 3411 ft 128 kts 144°
2026-04-18 18:26 18.86442 -70.16273 3417 ft 129 kts 144°
2026-04-18 18:26 18.85710 -70.15730 3416 ft 128 kts 143°
2026-04-18 18:26 18.84976 -70.15186 3417 ft 131 kts 143°
2026-04-18 18:26 18.84231 -70.14639 3415 ft 131 kts 143°
2026-04-18 18:27 18.83486 -70.14093 3415 ft 130 kts 143°
2026-04-18 18:27 18.82744 -70.13550 3417 ft 131 kts 143°
2026-04-18 18:27 18.81993 -70.12998 3419 ft 132 kts 143°
2026-04-18 18:27 18.81239 -70.12439 3413 ft 133 kts 143°
2026-04-18 18:28 18.80445 -70.11938 3414 ft 133 kts 150°
2026-04-18 18:28 18.79608 -70.11513 3412 ft 133 kts 154°
2026-04-18 18:28 18.78759 -70.11115 3414 ft 134 kts 154°
2026-04-18 18:28 18.77903 -70.10726 3414 ft 134 kts 154°
2026-04-18 18:29 18.77045 -70.10338 3413 ft 135 kts 155°
2026-04-18 18:29 18.76175 -70.09942 3412 ft 137 kts 155°
2026-04-18 18:29 18.75289 -70.09533 3405 ft 140 kts 154°
2026-04-18 18:29 18.74413 -70.09121 3414 ft 137 kts 154°
2026-04-18 18:30 18.73540 -70.08708 3410 ft 137 kts 153°
2026-04-18 18:30 18.72668 -70.08299 3412 ft 138 kts 154°
2026-04-18 18:30 18.71838 -70.07907 3411 ft 136 kts 153°
2026-04-18 18:30 18.70979 -70.07501 3412 ft 134 kts 154°
2026-04-18 18:31 18.70133 -70.07097 3412 ft 137 kts 154°
2026-04-18 18:31 18.69250 -70.06670 3413 ft 138 kts 153°
2026-04-18 18:31 18.68387 -70.06251 3413 ft 138 kts 153°
2026-04-18 18:31 18.67528 -70.05842 3411 ft 134 kts 154°
2026-04-18 18:32 18.66680 -70.05436 3406 ft 133 kts 154°
2026-04-18 18:32 18.65838 -70.05029 3412 ft 133 kts 153°
2026-04-18 18:32 18.64993 -70.04626 3410 ft 133 kts 154°
2026-04-18 18:32 18.64141 -70.04219 3412 ft 135 kts 153°
2026-04-18 18:33 18.63291 -70.03821 3411 ft 133 kts 154°
2026-04-18 18:33 18.62447 -70.03429 3412 ft 133 kts 154°
2026-04-18 18:33 18.61613 -70.03040 3412 ft 135 kts 154°
2026-04-18 18:33 18.60748 -70.02627 3414 ft 138 kts 153°
2026-04-18 18:34 18.59878 -70.02212 3409 ft 136 kts 154°
2026-04-18 18:34 18.58987 -70.01878 3408 ft 135 kts 162°
2026-04-18 18:34 18.58069 -70.01655 3413 ft 135 kts 166°
2026-04-18 18:34 18.57140 -70.01465 3411 ft 137 kts 167°
2026-04-18 18:35 18.56183 -70.01392 3408 ft 139 kts 176°
2026-04-18 18:35 18.55233 -70.01363 3409 ft 138 kts 173°
2026-04-18 18:35 18.54277 -70.01247 3410 ft 137 kts 170°
2026-04-18 18:35 18.53334 -70.01119 3411 ft 136 kts 171°
2026-04-18 18:36 18.52392 -70.00988 3409 ft 137 kts 170°
2026-04-18 18:36 18.51445 -70.00854 3410 ft 137 kts 169°
2026-04-18 18:36 18.50519 -70.00635 3410 ft 136 kts 160°
2026-04-18 18:36 18.49626 -70.00300 3412 ft 136 kts 157°
2026-04-18 18:37 18.48812 -69.99979 2991 ft 118 kts 156°
2026-04-18 18:37 18.48012 -69.99614 2166 ft 120 kts 144°
2026-04-18 18:37 18.47336 -69.99156 1730 ft 114 kts 141°
2026-04-18 18:37 18.46720 -69.98725 1476 ft 99 kts 143°
2026-04-18 18:38 18.46214 -69.98339 1240 ft 79 kts 143°
2026-04-18 18:38 18.45675 -69.98007 1050 ft 68 kts 146°
2026-04-18 18:38 18.45207 -69.97684 567 ft 96 kts 148°
2026-04-18 18:38 18.44694 -69.97526 408 ft 51 kts 86°
2026-04-18 18:39 18.44698 -69.97376 199 ft 3 kts
2026-04-18 18:39 18.44703 -69.97374 191 ft 0 kts 359°
2026-04-18 18:41 18.44767 -69.97372 281 ft 55 kts
2026-04-18 18:41 18.44823 -69.97711 395 ft 101 kts 210°
2026-04-18 18:41 18.44082 -69.97980 465 ft 125 kts 187°
2026-04-18 18:42 18.43284 -69.97928 406 ft 115 kts 171°
2026-04-18 18:42 18.42821 -69.97630 321 ft 77 kts 12°
2026-04-18 18:42 18.42750 -69.97674 160 ft 76 kts 82°
2026-04-18 18:42 18.42792 -69.97736 144 ft 63 kts 144°
2026-04-18 18:43 18.42940 -69.96289 336 ft 120 kts 80°
2026-04-18 18:43 18.43172 -69.95379 293 ft 131 kts 80°
2026-04-18 18:43 18.43328 -69.94757 285 ft 131 kts 77°
2026-04-18 18:44 18.43660 -69.93867 404 ft 124 kts 68°
2026-04-18 18:44 18.44053 -69.93037 332 ft 134 kts 65°
2026-04-18 18:44 18.44601 -69.92203 303 ft 143 kts 53°
2026-04-18 18:44 18.45235 -69.91378 250 ft 146 kts 58°
2026-04-18 18:45 18.45652 -69.90401 223 ft 147 kts 75°
2026-04-18 18:45 18.45937 -69.89366 369 ft 141 kts 77°
2026-04-18 18:45 18.46223 -69.88391 540 ft 137 kts 76°
2026-04-18 18:45 18.46633 -69.87490 597 ft 136 kts 60°
2026-04-18 18:46 18.47274 -69.86679 589 ft 156 kts 52°
2026-04-18 18:46 18.48004 -69.85801 530 ft 160 kts 52°
2026-04-18 18:46 18.48611 -69.84848 500 ft 152 kts 73°
2026-04-18 18:46 18.48886 -69.83796 499 ft 147 kts 78°
2026-04-18 18:47 18.49137 -69.82757 493 ft 146 kts 77°
2026-04-18 18:47 18.49427 -69.81723 496 ft 148 kts 75°
2026-04-18 18:47 18.49735 -69.80676 495 ft 150 kts 75°
2026-04-18 18:47 18.50048 -69.79621 493 ft 151 kts 75°
2026-04-18 18:48 18.50371 -69.78575 459 ft 153 kts 70°
2026-04-18 18:48 18.51076 -69.77821 469 ft 147 kts 37°
2026-04-18 18:48 18.51589 -69.76986 331 ft 139 kts 95°
2026-04-18 18:48 18.50848 -69.76655 316 ft 126 kts 184°
2026-04-18 18:49 18.50199 -69.76686 155 ft 76 kts 179°
2026-04-18 18:49 18.50000 -69.76964 376 ft 83 kts 277°
2026-04-18 18:49 18.50293 -69.77268 399 ft 47 kts 19°
2026-04-18 18:49 18.50508 -69.77041 278 ft 37 kts 108°
2026-04-18 18:50 18.50337 -69.76780 160 ft 53 kts 163°
2026-04-18 18:50 18.50114 -69.76793 132 ft 13 kts 302°
2026-04-18 18:50 18.50132 -69.76809 125 ft 1 kts 347°
2026-04-18 18:50 18.50136 -69.76811 114 ft 0 kts 346°